Location: Unspecified
(0.0000°N, 0.0000°E)
Time: 11:04:30
(UTC+00:00)

Envisat - Pass Details

Date: 27 May 2020
Orbit: 764 x 766 km, 98.1° (Epoch: 30 May)

Event Time Altitude Azimuth Distance (km) Brightness Sun altitude
Rises 05:16:26 0° 33° (NNE) 3,215 7.2 -9.5°
Reaches altitude 10° 05:19:02 10° 45° (NE) 2,292 6.7 -8.9°
Maximum altitude 05:23:16 27° 102° (ESE) 1,431 5.2 -7.9°
Drops below altitude 10° 05:27:31 10° 159° (SSE) 2,301 5.5 -6.9°
Sets 05:30:07 0° 171° (S) 3,230 6.1 -6.3°
